Погода Шарья

Погода Шарья : погода сейчас, прогноз погоды и архив. Всё, что Вы хотите узнать о погоде Шарья!

Хотите узнать прогноз погоды Шарья? Тогда Вам сюда: Погода Шарья

Поиск расширенной информации на нашем сайте:

Другие новости

Новости СМИ2

Главная страница сайта

Новости сайта

03.07.2017

Напоминаем, что на нашем специализированном сайте Метеоцентр.Азия вы можете получить высокодетализированные автоматические прогнозы погоды по пунктам России, СНГ и мира в авиационном формате (включающие направление и скорость ветра, видимость, явления погоды, количество и форму облачности, нижнюю и верхнюю границу облачности).

Рекомендуем: Чемпионат техника выполнения упражнений по бодибилдингу.

Погода Шарья - сегодня

Время (UTC), дата Ветер
(°,м/с) 
Видим.   Явления Облачность Т
(°С)
Тd
(°С)
f(%) Тe
(°С)
Pmin
(гПа)
dP
(гПа)
Po
(мм)
O2
(г/м3)
Тmin Tmax R s Состояние
почвы
06 17.04.18 070 (В) 20000 м    8/0 верхняя 
[Cc]
+7.9 -8.6 30 +8  1017.7  0.4  752  295  -5.2         
09 17.04.18 350 (С) 20000 м    3/0 верхняя 
[Ci sp]
+12.2 -7.4 25 +13  1017.3  -0.2  752  291           
12 17.04.18 040 (СВ) 20000 м    1/0 верхняя 
[Ci fib]
+13.6 -7.6 22 +14  1016.8  -0.4  751  289           
18 17.04.18 090 (В) 20000 м    8/0 верхняя 
[Ci sp]
+7.1 -9.7 29 +7  1017.4  0.5  752  296           
21 17.04.18 130 (ЮВ) 10 км    3/0 верхняя 
[Ci fib]
+1.1 -6.8 56 +2  1018.4  0.7  752  303           
00 18.04.18 120 (ЮВ) 10 км    8/0 средняя, верхняя 
[Ac trans|Ci fib]
-1.1 -6.8 65 -1  1018.3  -0.2  752  305           
03 18.04.18 120 (ЮВ) 10 км    10/0 средняя 
[Ac As]
+2.4 -8.8 43 +2  1017.7  -0.4  752  301  -2.3      мокрый или
старый снег
10-40% 
06 18.04.18 120 (ЮВ) 20000 м    10/0 средняя, верхняя 
[Ac trans|Ci sp]
+7.2 -8.4 32 +6  1017.2  -0.2  751  296  -2.3         
09 18.04.18 120 (ЮВ) 20000 м    10/0 средняя, верхняя 
[Ac trans|Cs]
+11.5 -7.4 26 +11  1016.4  -0.6  751  291           
12 18.04.18 130 (ЮВ) 20000 м    10/0 верхняя 
[Cs]
+11.7 -8.3 24 +12  1015.3  -1  750  291           
18 18.04.18 070 (В) 10 км    1/0 верхняя 
[Ci fib]
-1 -4.2 79 1014  -0.6  749  303           
21 18.04.18 310 (СЗ) 10 км    ясно 
-2.9 -3.9 93 -2  1012.3  -1.8  747  305           
00 19.04.18 020 (С) 10 км    4/0 верхняя 
[Ci fib]
-3 -5.5 83 -3  1010.6  -1.6  746  305           
03 19.04.18 010 (С) 10 км    3/0 верхняя 
[Ci fib]
+0.2 -5.8 64 -1  1008.9  -1.5  745  301  -3.8         
06 19.04.18 040 (СВ) 20000 м    8/0 средняя, верхняя 
[Ac trans|Ci fib]
+9.3 -7.1 31 +8  1007.3  -1.1  744  291  -3.8         
09 19.04.18 050 (СВ) 20000 м    10/0 верхняя 
[Ci sp]
+13.3 -6.7 24 +13  1006.2  -0.9  743  286           
12 19.04.18 040 (СВ) 20000 м    10/0 средняя, верхняя 
[Ac trans|Ci sp]
+13.9 -7 23 +14  1005.6  -0.5  743  286           
18 19.04.18 030 (СВ) 10 км    ясно 
+8.1 -6.2 36 +8  1006.8  1.5  744  292           
21 19.04.18 020 (С) 10 км    ясно 
+5.1 -4.2 51 +4  1008.4  1.4  745  295           
00 20.04.18 010 (С) 10 км    ясно 
+2.1 -4 64 +1  1009.5  0.9  746  299           
03 20.04.18 360 (С) 10 км    10/0 средняя, верхняя 
[Ac trans|Ci sp]
+0.7 -7.3 55 -2  1011.1  1.5  747  301  -1.4         
09 20.04.18 010 (С) 5{11}  20000 м    1/0 средняя 
[Ac trans]
+4.3 -11.3 31 +2  1012.8  0.5  748  298           
12 20.04.18 360 (С) 20000 м    1/0 средняя 
[Ac trans]
+5.4 -11.1 29 +4  1012.5  -0.2  748  296           
18 20.04.18 тихо ()   10 км    ясно 
-3.7 -8.1 71 -4  1012.9  0.1  748  306           
21 20.04.18 090 (В) 10 км    ясно 
-6.4 -8.4 86 -6  1012.5  -0.5  747  309           
Время (UTC), дата Ветер
(°,м/с) 
Видим.   Явления Облачность Т
(°С)
Тd
(°С)
f(%) Тe
(°С)
Pmin
(гПа)
dP
(гПа)
Po
(мм)
O2
(г/м3)
Тmin Tmax R s Состояние
почвы

Для получения пояснительной информации подведите курсор к названию столбца.

ПОГОДА Шарья - архив

Всё, что Вы хотите узнать о погоде Шарья - удобно и подробно!

Выберите нужную дату (начиная с 1 января 2015* года) и нажмите кнопку "Найти".
Будут отображены архивные сводки погоды по пункту Шарья, начиная с указанной даты.


Отображать данные в формате CSV (для использования в таблицах Excel)


Внимание! Наш архив погоды предназначен исключительно для личного некоммерческого использования в познавательных целях. Если Вам необходимы официальные справки о состоянии погоды (для производственных, юридических, коммерческих и т.п. целей), обращайтесь в органы Росгидромета.

*Примечание: данная дата относится к архиву по метеостанциям СССР (Россия, СНГ, Балтия).
Архив по метеостанциям Зарубежной Европы и Азии (кроме Китая) хранится 10 дней, по другим регионам земного шара (Китай, Африка, Америка, Австралия, Океания) - 1 день.

Шарья - район местоположения метеостанции


Название, широта, долгота, высота метеостанции:
Шарья 58.4°ш. 45.5°д. 125 м над ур. моря [Российская Федерация]

Дополнительная информация

В oтличие oт бoльшинства пoгoдных сайтoв мы публикуем пoдрoбную метеoинфoрмацию в детальнoм прoфессиoнальнoм фoрмате.

Характеристики температуры и влажнoсти вoздуха измеряются на высoте 2 м в тени вдали oт зданий и деревьев.
Скoрoсть ветра измеряется на высoте 10 м (на урoвне рoста челoвека скoрoсть ветра ниже в 1.5-2 раза). Если метеoстанция нахoдится в гoрoде или в лесу, тo скoрoсть ветра занижена на 2-4 м/с пo сравнению с oткрытым местoм. Скoрoсть ветра над акватoриями крупных рек и oзёр, а также на вершинах хoлмoв на 2-5 м/с выше, чем в oбычных услoвиях.
Атмoсфернoе давление в разных тoчках местнoсти мoжет значительнo oтличаться oт давления на метеoстанции, в зависимoсти oт услoвий рельефа (при пoдъёме на 10 м давление пoнижается примернo на 1 мм рт.ст.).